Location: Newark
(44.3248°N, 23.7839°E)
Time: 09:37:50
(UTC+00:00)

UNISAT 6 - Pass Details

Date: 21 April 2024
Orbit: 593 x 667 km, 97.7° (Epoch: 29 May)

Event Time Altitude Azimuth Distance (km) Brightness Sun altitude
Rises 01:43:25 0° 147° (SSE) 2,941 ? -17.8°
Reaches altitude 10° 01:45:44 10° 140° (SE) 2,024 ? -17.4°
Maximum altitude 01:49:50 40° 71° (ENE) 934 ? -16.9°
Drops below altitude 10° 01:53:53 10° 2° (N) 1,994 ? -16.3°
Sets 01:56:09 0° 355° (N) 2,892 ? -15.9°
